Terminal Aerodrome Forecast
Issued by NWS Huntsville, AL

Home | Current Version | Previous Version | Text Only | Print | Product List | Glossary On
Versions: 1 2 3 4 5 6 7 8 9 10 11 12 13 14 15 16 17 18 19 20 21 22 23 24 25 26 27 28 29 30 31 32 33 34 35
000
FTUS44 KHUN 270303 AAA
TAFHSV
TAF AMD
KHSV 270303Z 2703/2724 01008KT P6SM BKN018
     FM270500 01006KT P6SM SKC
     FM271500 04008KT P6SM SKC=

USA.gov is the U.S. government's official web portal to all federal, state and local government web resources and services.